sat.trackr.live / text

‹ back to catalog

STARLINK-33685

NORAD 63465 · 2025-070F

PAYLOAD ACTIVE UNKNOWN

§ Identity

Operator
Country
US
Launch date
2025-04-06
Launch site
AFETR
Launch vehicle
Mass (kg)
RCS (m²)

Purposes: comms

External: N2YO · Heavens-Above · Gunter

§ Orbital elements

Epoch: 2026-09-20T08:06:25.340256Z

Period
94.26 min
Inclination
43.0008°
Eccentricity
0.0001233
Mean motion
15.27608617 rev/d
Perigee alt
482.1 km
Apogee alt
483.8 km
Semi-major
6,861.1 km
B*
8.3268e-4
RAAN
240.6807°
Arg perigee
270.0211°
Mean anomaly
90.0499°
Rev number
8,274

§ Raw data

STARLINK-336851 63465U 25070F   26263.33779329  .00022742  00000+0  83268-3 0  99962 63465  43.0008 240.6807 0001233 270.0211  90.0499 15.27608617 82745

JSON: /api/v1/satellites/63465 · /tle

For live sub-satellite position, see the globe view (requires WebGL).

§ Visibility from observer

Set your observer location to see the next 7 days of passes ≥ 10°. The values pass through the URL so the page stays shareable.

No JS? Fill the form by hand. The geolocation button needs JavaScript.